[Iaude] MPEC G65: 2024 FK5 [a=1.50,e=0.37,i=11.7,H=27.2]

mpec at cfa.harvard.edu mpec at cfa.harvard.edu
Fri Apr 5 09:33:27 EDT 2024


M.P.E.C. 2024-G65                                 Issued 2024 April 5, 13:32 UT

     The Minor Planet Electronic Circulars contain information on unusual
         minor planets, routine data on comets and natural satellites,
         and occasional editorial announcements.  They are published
    on behalf of Division F of the International Astronomical Union by the
          Minor Planet Center, Smithsonian Astrophysical Observatory,
                          Cambridge, MA 02138, U.S.A.
			  
             Prepared using the Tamkin Foundation Computer Network

                              MPC at CFA.HARVARD.EDU
            URL https://www.minorplanetcenter.net/    ISSN 1523-6714

                                    2024 FK5                                    


Observations:
     K24F05K 1C2024 03 28.41234 13 15 45.84 +37 18 10.9          20.7 GVEG065703
     K24F05K 1C2024 03 28.41698 13 15 41.24 +37 10 14.4          18.9 GVEG065703
     K24F05K  C2024 03 28.49287113 15 06.237+35 03 33.50         18.12GVEG065F51
     K24F05K  C2024 03 29.53265913 06 19.661+07 04 56.91         18.41GVEG065F51
     K24F05K  C2024 03 29.53543113 06 17.912+07 01 03.92         17.83GVEG065F51
     K24F05K* C2024 03 31.48226912 58 21.468-22 46 04.56               VEG065F52
     K24F05K  C2024 03 31.49435412 58 17.067-22 52 38.59         19.37GVEG065F52
     K24F05K  C2024 03 31.50591812 58 12.962-22 58 53.16               VEG065F52
     K24F05K  C2024 03 31.56702012 57 52.523-23 31 01.53               VEG065F52
     K24F05K  C2024 03 31.56819012 57 52.177-23 31 37.30               VEG065F52
     K24F05K |C2024 04 01.27576012 56 15.980-28 46 42.40         19.6 GVEG065807
     K24F05K |C2024 04 01.27848012 56 15.200-28 47 44.40         19.9 GVEG065807
     K24F05K |C2024 04 01.28123012 56 14.430-28 48 47.00         19.5 GVEG065807
     K24F05K  C2024 04 01.41400312 56 13.414-29 43 42.20         19.59GVEG065F51
     K24F05K  C2024 04 01.41482112 56 13.175-29 43 59.76         20.14GVEG065F51

Observer details:
703 Catalina Sky Survey.  Observer J. K. Hogan.  Measurers B. Gray, D. Rankin,
    F. C. Shelly.  0.68-m Schmidt + 10K CCD.
807 Cerro Tololo Observatory, La Serena.  Observers T. Linder, R. Holmes.
    0.61-m f/6.8 Ritchey-Chretien + CCD.
F51 Pan-STARRS 1, Haleakala.  Observers J. Herman, T. Lowe, P. Minguez, A.
    Schultz, I. Smith.  Measurers K. Chambers, T. de Boer, J. Fairlamb, H.
    Gao, M. Huber, C.-C. Lin, E. Magnier, Y. Ramanjooloo, R. Wainscoat, R.
    Weryk.  1.8-m Ritchey-Chretien + CCD.
F52 Pan-STARRS 2, Haleakala.  Observers J. Herman, T. Lowe, P. Minguez, A.
    Schultz, I. Smith.  Measurers K. Chambers, T. de Boer, J. Fairlamb, H.
    Gao, M. Huber, C.-C. Lin, E. Magnier, Y. Ramanjooloo, R. Wainscoat, R.
    Weryk.  1.8-m Ritchey-Chretien + CCD.

Orbital elements:
2024 FK5                                                 Earth MOID = 0.0107 AU
Epoch 2024 Mar. 31.0 TT = JDT 2460400.5                 MPC                     
M  18.11652              (2000.0)            P               Q                  
n   0.53408130     Peri.  140.48577     -0.86602129     -0.49882405             
a   1.5045194      Node     9.77125     +0.39198313     -0.71999698             
e   0.3684125      Incl.   11.68613     +0.31041319     -0.48247167             
P   1.85           H   27.27          G   0.15           U   7                  
Residuals in seconds of arc
240328 703 (2.3-  4.3-)   240331 F52  0.3+  0.1+    240401 807  0.0   0.0
240328 703  0.6-  0.2+    240331 F52  0.2+  0.2+    240401 807  0.2-  0.1-
240328 F51  0.2+  0.0     240331 F52  0.6+  0.2-    240401 807  0.2-  0.3-
240329 F51  0.0   0.2-    240331 F52  0.1-  1.0+    240401 F51  0.2+  0.2-
240329 F51  0.0   0.1+    240331 F52 (0.2+  1.4+)   240401 F51  0.2+  0.3+

Ephemeris:
2024 FK5                 a,e,i = 1.50, 0.37, 12                  q = 0.9502
Date    TT    R. A. (2000) Decl.     Delta      r    Elong.  Phase     V
2024 03 06    00 34 11.2 +60 27 44   0.1192  0.9545    68.3   105.0    26.4
...
2024 03 21    00 20 12.4 +71 26 36   0.04184 0.9835    71.3   106.4    24.3
...
2024 03 29    13 10 27.1 +20 42 55   0.01097 1.0082   154.1    25.7    18.7
...
2024 04 04    12 51 59.1 -39 43 43   0.03618 1.0303   145.9    32.9    21.5
2024 04 05    12 50 54.7 -41 52 23   0.04137 1.0342   144.2    34.5    21.9
2024 04 06    12 50 01.4 -43 30 55   0.04661 1.0382   142.8    35.6    22.2
...
2024 04 12    12 47 06.5 -48 20 37   0.07879 1.0637   139.6    37.6    23.4
...
2024 04 20    12 46 58.5 -49 58 02   0.1230  1.1008   139.3    36.5    24.4
...
2024 05 05    12 53 49.6 -49 06 16   0.2109  1.1773   139.7    33.7    25.6

A. U. Tomatic                (C) Copyright 2024 MPC           M.P.E.C. 2024-G65





More information about the Iaude mailing list